When you browse on this site, cookies collect data to enhance your experience and personalize the content and advertising you see.
Visit our Privacy Policy to learn more. By continuing to use the site, you agree to this use of cookies and data.
  • en France
  • Liste des pays
  • À 7 jours
  • Température de l'eau
  • Carte satellitaire
  • Carte météo
  • Widgets météo
  • user-avatar
    Se connecter

    Météo par heure à La-Plata

    Ce jour, 19 Janvier, Samedi

    Heure Température Précipitation Vent Pression Humidité
    00:00 +18°C° 0 mm 4 m/s 765 mmHg 76%
    01:00 +18°C° 0 mm 4 m/s 765 mmHg 75%
    02:00 +18°C° 0 mm 4 m/s 765 mmHg 74%
    03:00 +17°C° 0 mm 3 m/s 765 mmHg 75%
    04:00 +17°C° 0 mm 3 m/s 765 mmHg 75%
    05:00 +17°C° 0 mm 2 m/s 765 mmHg 76%
    06:00 +19°C° 0 mm 2 m/s 765 mmHg 68%
    07:00 +21°C° 0 mm 2 m/s 766 mmHg 60%
    08:00 +24°C° 0 mm 2 m/s 766 mmHg 53%
    09:00 +25°C° 0 mm 3 m/s 766 mmHg 47%
    10:00 +26°C° 0 mm 3 m/s 765 mmHg 42%
    11:00 +27°C° 0 mm 3 m/s 765 mmHg 36%
    12:00 +28°C° 0 mm 4 m/s 765 mmHg 37%
    13:00 +28°C° 0 mm 5 m/s 764 mmHg 38%
    14:00 +28°C° 0 mm 6 m/s 764 mmHg 39%
    15:00 +28°C° 0 mm 6 m/s 764 mmHg 41%
    16:00 +27°C° 0 mm 6 m/s 763 mmHg 44%
    17:00 +26°C° 0 mm 6 m/s 763 mmHg 46%
    18:00 +23°C° 0 mm 6 m/s 763 mmHg 54%
    19:00 +22°C° 0 mm 6 m/s 764 mmHg 62%
    20:00 +21°C° 0 mm 5 m/s 764 mmHg 69%
    21:00 +21°C° 0 mm 5 m/s 764 mmHg 71%
    22:00 +21°C° 0 mm 5 m/s 764 mmHg 73%
    23:00 +21°C° 0 mm 5 m/s 764 mmHg 74%

    Demain, 20 Janvier, Dimanche

    Heure Température Précipitation Vent Pression Humidité
    00:00 +21°C° 0 mm 5 m/s 764 mmHg 74%
    01:00 +20°C° 0 mm 5 m/s 764 mmHg 74%
    02:00 +20°C° 0 mm 5 m/s 764 mmHg 74%
    03:00 +20°C° 0 mm 5 m/s 763 mmHg 74%
    04:00 +19°C° 0 mm 4 m/s 763 mmHg 75%
    05:00 +19°C° 0 mm 4 m/s 763 mmHg 75%
    06:00 +20°C° 0 mm 4 m/s 763 mmHg 70%
    07:00 +21°C° 0 mm 4 m/s 763 mmHg 64%
    08:00 +23°C° 0 mm 5 m/s 763 mmHg 58%
    09:00 +25°C° 0 mm 5 m/s 763 mmHg 53%
    10:00 +26°C° 0 mm 4 m/s 763 mmHg 48%
    11:00 +27°C° 0 mm 4 m/s 762 mmHg 42%
    12:00 +28°C° 0 mm 4 m/s 762 mmHg 40%
    13:00 +28°C° 0 mm 4 m/s 761 mmHg 38%
    14:00 +29°C° 0 mm 4 m/s 760 mmHg 36%
    15:00 +29°C° 0 mm 4 m/s 760 mmHg 37%
    16:00 +28°C° 0 mm 4 m/s 759 mmHg 38%
    17:00 +28°C° 0 mm 4 m/s 758 mmHg 38%
    18:00 +27°C° 0 mm 4 m/s 758 mmHg 46%
    19:00 +25°C° 0 mm 4 m/s 758 mmHg 54%
    20:00 +23°C° 0 mm 4 m/s 758 mmHg 61%
    21:00 +23°C° 0 mm 4 m/s 759 mmHg 61%
    22:00 +23°C° 0 mm 4 m/s 759 mmHg 61%
    23:00 +23°C° 0 mm 4 m/s 759 mmHg 61%

    Après-demain, 21 Janvier, Lundi

    Heure Température Précipitation Vent Pression Humidité
    00:00 +22°C° 0 mm 5 m/s 759 mmHg 65%
    01:00 +22°C° 0 mm 5 m/s 759 mmHg 69%
    02:00 +22°C° 0 mm 5 m/s 758 mmHg 73%
    03:00 +21°C° 0 mm 5 m/s 758 mmHg 76%
    04:00 +21°C° 0 mm 5 m/s 758 mmHg 80%
    05:00 +21°C° 0 mm 4 m/s 758 mmHg 84%
    06:00 +22°C° 0 mm 4 m/s 759 mmHg 77%
    07:00 +25°C° 0 mm 4 m/s 759 mmHg 71%
    08:00 +26°C° 0 mm 4 m/s 759 mmHg 64%
    09:00 +28°C° 0 mm 4 m/s 759 mmHg 58%
    10:00 +29°C° 0 mm 4 m/s 759 mmHg 52%
    11:00 +30°C° 0 mm 3 m/s 758 mmHg 45%
    12:00 +32°C° 0 mm 4 m/s 758 mmHg 42%
    13:00 +33°C° 0 mm 4 m/s 757 mmHg 39%
    14:00 +34°C° 0 mm 4 m/s 757 mmHg 37%
    15:00 +34°C° 0 mm 4 m/s 756 mmHg 37%
    16:00 +33°C° 0 mm 4 m/s 756 mmHg 37%
    17:00 +33°C° 0 mm 4 m/s 756 mmHg 37%
    18:00 +32°C° 0 mm 4 m/s 756 mmHg 43%
    19:00 +29°C° 0 mm 3 m/s 756 mmHg 48%
    20:00 +27°C° 0 mm 3 m/s 757 mmHg 54%
    21:00 +27°C° 0 mm 3 m/s 757 mmHg 56%
    22:00 +27°C° 0 mm 4 m/s 757 mmHg 59%
    23:00 +27°C° 0 mm 4 m/s 757 mmHg 62%

    22 Janvier, Mardi

    Heure Température Précipitation Vent Pression Humidité
    00:00 +26°C° 0 mm 4 m/s 757 mmHg 63%
    01:00 +26°C° 0 mm 4 m/s 757 mmHg 64%
    02:00 +26°C° 0 mm 5 m/s 756 mmHg 65%
    03:00 +26°C° 0 mm 5 m/s 756 mmHg 67%
    04:00 +25°C° 0 mm 5 m/s 756 mmHg 69%
    05:00 +25°C° 0 mm 5 m/s 757 mmHg 71%
    06:00 +27°C° 0 mm 5 m/s 757 mmHg 66%
    07:00 +28°C° 0 mm 5 m/s 757 mmHg 61%
    08:00 +29°C° 0 mm 5 m/s 757 mmHg 56%
    09:00 +32°C° 0 mm 5 m/s 756 mmHg 51%
    10:00 +33°C° 0 mm 5 m/s 756 mmHg 47%
    11:00 +34°C° 0 mm 5 m/s 756 mmHg 43%
    12:00 +35°C° 0 mm 5 m/s 755 mmHg 41%
    13:00 +36°C° 0 mm 5 m/s 755 mmHg 39%
    14:00 +36°C° 0 mm 5 m/s 754 mmHg 37%
    15:00 +36°C° 0 mm 5 m/s 754 mmHg 38%
    16:00 +36°C° 0 mm 5 m/s 753 mmHg 39%
    17:00 +36°C° 0 mm 5 m/s 753 mmHg 40%
    18:00 +34°C° 0 mm 5 m/s 753 mmHg 45%
    19:00 +33°C° 0 mm 5 m/s 754 mmHg 51%
    20:00 +32°C° 0 mm 5 m/s 754 mmHg 57%
    21:00 +30°C° 0 mm 4 m/s 755 mmHg 59%
    22:00 +30°C° 0 mm 4 m/s 755 mmHg 62%
    23:00 +29°C° 0 mm 3 m/s 756 mmHg 65%

    23 Janvier, Mercredi

    Heure Température Précipitation Vent Pression Humidité
    00:00 +28°C° 0 mm 3 m/s 756 mmHg 66%
    01:00 +27°C° 0 mm 2 m/s 756 mmHg 67%
    02:00 +26°C° 0 mm 2 m/s 756 mmHg 68%
    03:00 +25°C° 0.1 mm 3 m/s 756 mmHg 72%
    04:00 +24°C° 0.1 mm 3 m/s 757 mmHg 76%
    05:00 +22°C° 0.1 mm 4 m/s 757 mmHg 80%
    06:00 +23°C° 0 mm 4 m/s 757 mmHg 74%
    07:00 +26°C° 0 mm 5 m/s 757 mmHg 68%
    08:00 +27°C° 0 mm 5 m/s 758 mmHg 62%
    09:00 +29°C° 0 mm 5 m/s 758 mmHg 56%
    10:00 +32°C° 0 mm 5 m/s 758 mmHg 51%
    11:00 +34°C° 0 mm 6 m/s 758 mmHg 45%
    12:00 +34°C° 0 mm 6 m/s 758 mmHg 45%
    13:00 +34°C° 0 mm 6 m/s 758 mmHg 45%
    14:00 +34°C° 0 mm 6 m/s 757 mmHg 44%
    15:00 +33°C° 0.1 mm 6 m/s 757 mmHg 47%
    16:00 +32°C° 0.1 mm 6 m/s 757 mmHg 49%
    17:00 +30°C° 0.1 mm 7 m/s 757 mmHg 51%
    18:00 +29°C° 0.1 mm 7 m/s 757 mmHg 56%
    19:00 +27°C° 0.1 mm 7 m/s 757 mmHg 61%
    20:00 +24°C° 0.1 mm 7 m/s 757 mmHg 66%
    21:00 +24°C° 0.1 mm 7 m/s 758 mmHg 67%
    22:00 +23°C° 0.1 mm 7 m/s 758 mmHg 68%
    23:00 +23°C° 0.1 mm 7 m/s 759 mmHg 69%

    24 Janvier, Jeudi

    Heure Température Précipitation Vent Pression Humidité
    00:00 +23°C° 0.1 mm 6 m/s 758 mmHg 71%
    01:00 +23°C° 0.1 mm 6 m/s 758 mmHg 73%
    02:00 +23°C° 0.1 mm 6 m/s 758 mmHg 75%
    03:00 +23°C° 0.1 mm 6 m/s 758 mmHg 77%
    04:00 +23°C° 0.1 mm 6 m/s 758 mmHg 78%
    05:00 +23°C° 0.1 mm 6 m/s 758 mmHg 80%
    06:00 +26°C° 0 mm 6 m/s 758 mmHg 76%
    07:00 +27°C° 0 mm 6 m/s 758 mmHg 72%
    08:00 +28°C° 0 mm 6 m/s 758 mmHg 68%
    09:00 +30°C° 0 mm 6 m/s 758 mmHg 62%
    10:00 +33°C° 0 mm 6 m/s 758 mmHg 56%
    11:00 +35°C° 0 mm 6 m/s 757 mmHg 50%
    12:00 +36°C° 0 mm 6 m/s 757 mmHg 46%
    13:00 +38°C° 0 mm 6 m/s 756 mmHg 43%
    14:00 +39°C° 0 mm 6 m/s 755 mmHg 40%
    15:00 +39°C° 0 mm 6 m/s 754 mmHg 41%
    16:00 +39°C° 0 mm 7 m/s 754 mmHg 42%
    17:00 +38°C° 0 mm 7 m/s 754 mmHg 44%
    18:00 +36°C° 0 mm 7 m/s 753 mmHg 48%
    19:00 +35°C° 0 mm 8 m/s 752 mmHg 53%
    20:00 +34°C° 0 mm 8 m/s 752 mmHg 57%
    21:00 +33°C° 0.2 mm 8 m/s 752 mmHg 62%
    22:00 +32°C° 0.2 mm 8 m/s 752 mmHg 67%
    23:00 +31°C° 0.2 mm 8 m/s 753 mmHg 72%
    Voir plus